User: anonymous   Login
Location: Days
(41.3591°N, 106.7339°W)
Time: 00:31:55
(UTC+00:00)
Language:

Max Valier Satellite - Orbit

View from above orbital plane
View from above orbital plane
View from above satellite
View from above satellite

Ground track
Ground track

The orbit data is extracted from the following two-line orbital elements,

1 42778U 17036P   22178.34906098  .00006938  00000-0  26296-3 0  9998
2 42778  97.2042 219.1103 0008747 294.0161  66.0163 15.27157528278417
Epoch (UTC): 27 June 2022 08:22:38
Eccentricity: 0.0008747
inclination: 97.2042°
perigee height: 478 km
apogee height: 490 km
right ascension of ascending node: 219.1103°
argument of perigee: 294.0161°
revolutions per day: 15.27157528
mean anomaly at epoch: 66.0163°
orbit number at epoch: 27841

The dashed part of the orbit path shows where the satellite is in the earth's shadow,  

DLR